Back to catalog

ERS 2 DEB

AliveSSO
NORAD 35393·DEBRIS·🇪🇺 EU

Launched Apr 21, 1995 from Guiana Space Centre

Loading…

Next Passes (next 24 hours)

TLE

FreshSource: Space-Track

Epoch: Sep 14, 2026, 10:42 UTC

1 35393U 95021G   26257.44589757  .00001826  00000-0  41970-3 0  9992
2 35393  98.5191 239.1950 0005138  34.7541 116.4481 14.56678269215207

Track ERS 2 DEB in real time with AllMySat

Download on the App Store